Weather History for Albert Lea, MN

Change the Weather History Date:

Sunday, February 17, 2013

  Actual Average Record
Temperature  
Mean Temperature 26 °F -  
Max Temperature 35 °F 28 °F 48 °F (2011)
Min Temperature 17 °F 15 °F -9 °F (2001)
Degree Days  
Heating Degree Days 39    
Moisture  
Dew Point 22 °F    
Average Humidity 82    
Maximum Humidity 93    
Minimum Humidity 70    
Precipitation  
Precipitation 0.00 in - - ()
Sea Level Pressure  
Sea Level Pressure 29.87 in    
Wind  
Wind Speed 14 mph (SSE)    
Max Wind Speed 25 mph    
Max Gust Speed 33 mph    
Visibility 10 miles    
Events      
Averages and records for this station are not official NWS values.
T = Trace of Precipitation, MM = Missing Value Source: NWS Daily Summary

Daily Weather History Graph

Daily Weather History Graph

Search for Another Location

Airport:

Trip Planner

Search our weather history database for the weather conditions in past years. The results will help you decide how hot, cold, wet, or windy it might be!

Date:

Astronomy

Feb. 17, 2013 Rise Set
Actual Time 7:08 AM CST 5:46 PM CST
Civil Twilight 6:39 AM CST 6:16 PM CST
Nautical Twilight 6:05 AM CST 6:49 PM CST
Astronomical Twilight 5:32 AM CST 7:22 PM CST
Moon 10:47 AM CST (2/17) 12:57 AM CST (2/17)
Length of Visible Light 11h 36m
Length of Day
10h 38m
Waxing Crescent, 49% of the Moon is Illuminated
Feb 17
Waxing Crescent
Feb 17
First Quarter
Feb 25
Full
Mar 4
Last Quarter
Mar 11
New

Hourly Weather History & Observations

Time (CST) Temp. Windchill Dew Point Humidity Pressure Visibility Wind Dir Wind Speed Gust Speed Precip Events Conditions
12:09 AM 19.4 °F 8.6 °F 15.8 °F 86% 30.06 in 10.0 mi SE 9.2 mph - N/A   Mostly Cloudy
12:29 AM 19.4 °F 9.5 °F 15.8 °F 86% 30.06 in 10.0 mi SE 8.1 mph - N/A   Clear
12:49 AM 17.6 °F 7.3 °F 15.8 °F 93% 30.06 in 10.0 mi SSE 8.1 mph - N/A   Clear
1:09 AM 17.6 °F 8.2 °F 15.8 °F 93% 30.06 in 10.0 mi SE 6.9 mph - N/A   Scattered Clouds
1:29 AM 17.6 °F 9.3 °F 15.8 °F 93% 30.06 in 10.0 mi SE 5.8 mph - N/A   Scattered Clouds
1:49 AM 17.6 °F 7.3 °F 15.8 °F 93% 30.06 in 10.0 mi SE 8.1 mph - N/A   Clear
2:09 AM 17.6 °F 7.3 °F 15.8 °F 93% 30.06 in 10.0 mi SSE 8.1 mph - N/A   Clear
2:29 AM 17.6 °F 7.3 °F 15.8 °F 93% 30.06 in 10.0 mi SSE 8.1 mph - N/A   Clear
2:49 AM 17.6 °F 5.7 °F 15.8 °F 93% 30.05 in 10.0 mi SSE 10.4 mph - N/A   Clear
3:09 AM 17.6 °F 6.4 °F 15.8 °F 93% 30.04 in 10.0 mi SSE 9.2 mph - N/A   Clear
3:29 AM 17.6 °F 5.7 °F 15.8 °F 93% 30.04 in 10.0 mi SSE 10.4 mph - N/A   Clear
3:49 AM 17.6 °F 6.4 °F 15.8 °F 93% 30.04 in 10.0 mi SSE 9.2 mph - N/A   Clear
4:10 AM 17.6 °F 6.4 °F 15.8 °F 93% 30.03 in 10.0 mi SSE 9.2 mph - N/A   Clear
4:29 AM 17.6 °F 5.7 °F 15.8 °F 93% 30.03 in 10.0 mi SSE 10.4 mph - N/A   Clear
4:49 AM 17.6 °F 5.7 °F 15.8 °F 93% 30.03 in 10.0 mi SSE 10.4 mph - N/A   Clear
5:10 AM 17.6 °F 5.7 °F 15.8 °F 93% 30.03 in 10.0 mi South 10.4 mph - N/A   Clear
5:29 AM 17.6 °F 4.3 °F 15.8 °F 93% 30.02 in 10.0 mi SSE 12.7 mph - N/A   Clear
5:49 AM 17.6 °F 3.2 °F 15.8 °F 93% 30.01 in 10.0 mi SSE 15.0 mph - N/A   Clear
6:10 AM 17.6 °F 3.7 °F 15.8 °F 93% 30.01 in 10.0 mi SSE 13.8 mph - N/A   Clear
6:29 AM 17.6 °F 3.7 °F 15.8 °F 93% 30.00 in 10.0 mi SSE 13.8 mph - N/A   Clear
6:49 AM 17.6 °F 3.7 °F 15.8 °F 93% 29.99 in 10.0 mi SSE 13.8 mph - N/A   Clear
7:10 AM 17.6 °F 3.2 °F 15.8 °F 93% 29.98 in 10.0 mi SSE 15.0 mph - N/A   Clear
7:29 AM 17.6 °F 3.7 °F 15.8 °F 93% 29.98 in 10.0 mi SSE 13.8 mph - N/A   Clear
7:49 AM 17.6 °F 3.7 °F 15.8 °F 93% 29.98 in 10.0 mi SSE 13.8 mph - N/A   Clear
8:10 AM 17.6 °F 3.7 °F 15.8 °F 93% 29.98 in 10.0 mi SSE 13.8 mph 21.9 mph N/A   Clear
8:29 AM 19.4 °F 6.6 °F 15.8 °F 86% 29.97 in 10.0 mi South 12.7 mph 19.6 mph N/A   Clear
8:49 AM 19.4 °F 7.2 °F 17.6 °F 93% 29.97 in 10.0 mi South 11.5 mph - N/A   Clear
9:10 AM 21.2 °F 10.1 °F 17.6 °F 86% 29.97 in 10.0 mi South 10.4 mph - N/A   Clear
9:29 AM 21.2 °F 8.3 °F 17.6 °F 86% 29.96 in 10.0 mi South 13.8 mph 19.6 mph N/A   Clear
9:49 AM 23.0 °F 9.6 °F 19.4 °F 86% 29.95 in 10.0 mi SSE 16.1 mph - N/A   Clear
10:10 AM 24.8 °F 12.9 °F 19.4 °F 80% 29.95 in 10.0 mi SSE 13.8 mph - N/A   Clear
10:29 AM 24.8 °F 12.9 °F 19.4 °F 80% 29.94 in 10.0 mi SSE 13.8 mph 23.0 mph N/A   Clear
10:49 AM 26.6 °F 13.8 °F 21.2 °F 80% 29.94 in 10.0 mi SSE 17.3 mph 23.0 mph N/A   Clear
11:09 AM 28.4 °F 16.2 °F 21.2 °F 74% 29.93 in 10.0 mi SSE 17.3 mph 21.9 mph N/A   Clear
11:29 AM 28.4 °F 16.6 °F 21.2 °F 74% 29.92 in 10.0 mi SSE 16.1 mph 25.3 mph N/A   Clear
11:50 AM 28.4 °F 16.6 °F 23.0 °F 80% 29.91 in 10.0 mi SSE 16.1 mph 25.3 mph N/A   Clear
12:09 PM 30.2 °F 17.8 °F 23.0 °F 75% 29.90 in 10.0 mi SSE 19.6 mph 25.3 mph N/A   Clear
12:29 PM 30.2 °F 17.4 °F 24.8 °F 80% 29.88 in 10.0 mi SSE 20.7 mph 25.3 mph N/A   Clear
12:49 PM 30.2 °F 16.8 °F 24.8 °F 80% 29.87 in 10.0 mi SSE 23.0 mph 27.6 mph N/A   Clear
1:09 PM 33.8 °F 24.3 °F 24.8 °F 70% 29.86 in 10.0 mi South 13.8 mph 24.2 mph N/A   Clear
1:29 PM 33.8 °F 22.2 °F 24.8 °F 70% 29.85 in 10.0 mi SSE 20.7 mph 28.8 mph N/A   Clear
1:49 PM 33.8 °F 21.3 °F 24.8 °F 70% 29.84 in 10.0 mi SSE 24.2 mph 31.1 mph N/A   Clear
2:09 PM 33.8 °F 21.6 °F 24.8 °F 70% 29.82 in 10.0 mi SSE 23.0 mph 31.1 mph N/A   Clear
2:29 PM 33.8 °F 21.6 °F 26.6 °F 75% 29.81 in 10.0 mi SSE 23.0 mph 26.5 mph N/A   Clear
2:49 PM 33.8 °F 22.5 °F 26.6 °F 75% 29.79 in 10.0 mi SSE 19.6 mph 27.6 mph N/A   Clear
3:09 PM 33.8 °F 21.0 °F 26.6 °F 75% 29.79 in 10.0 mi SSE 25.3 mph 29.9 mph N/A   Clear
3:29 PM 35.6 °F 23.7 °F 26.6 °F 70% 29.78 in 10.0 mi SSE 24.2 mph 32.2 mph N/A   Clear
3:49 PM 35.6 °F 26.2 °F 26.6 °F 70% 29.78 in 10.0 mi SSE 15.0 mph 25.3 mph N/A   Clear
4:10 PM 35.6 °F 24.2 °F 26.6 °F 70% 29.76 in 10.0 mi SSE 21.9 mph 32.2 mph N/A   Clear
4:29 PM 35.6 °F 24.8 °F 26.6 °F 70% 29.76 in 10.0 mi SSE 19.6 mph 25.3 mph N/A   Clear
4:49 PM 33.8 °F 22.8 °F 26.6 °F 75% 29.75 in 10.0 mi SSE 18.4 mph 25.3 mph N/A   Scattered Clouds
5:09 PM 33.8 °F 21.3 °F 28.4 °F 81% 29.74 in 10.0 mi SSE 24.2 mph 27.6 mph N/A   Clear
5:30 PM 33.8 °F 22.2 °F 28.4 °F 81% 29.73 in 10.0 mi SSE 20.7 mph 29.9 mph N/A   Clear
6:09 PM 33.8 °F 21.6 °F 26.6 °F 75% 29.72 in 10.0 mi SE 23.0 mph 29.9 mph N/A   Clear
6:29 PM 33.8 °F 21.3 °F 26.6 °F 75% 29.71 in 10.0 mi SSE 24.2 mph 29.9 mph N/A   Clear
6:49 PM 33.8 °F 21.6 °F 26.6 °F 75% 29.70 in 10.0 mi SSE 23.0 mph 31.1 mph N/A   Clear
7:09 PM 33.8 °F 21.3 °F 26.6 °F 75% 29.69 in 10.0 mi SSE 24.2 mph 28.8 mph N/A   Clear
7:29 PM 33.8 °F 22.2 °F 26.6 °F 75% 29.69 in 10.0 mi SSE 20.7 mph 32.2 mph N/A   Clear
7:49 PM 33.8 °F 21.6 °F 26.6 °F 75% 29.69 in 10.0 mi SSE 23.0 mph 31.1 mph N/A   Clear
8:09 PM 33.8 °F 22.2 °F 26.6 °F 75% 29.68 in 10.0 mi SSE 20.7 mph 29.9 mph N/A   Clear
8:29 PM 33.8 °F 21.9 °F 26.6 °F 75% 29.67 in 10.0 mi SSE 21.9 mph 28.8 mph N/A   Clear
8:49 PM 33.8 °F 22.2 °F 26.6 °F 75% 29.67 in 10.0 mi SSE 20.7 mph 28.8 mph N/A   Clear
9:09 PM 33.8 °F 21.6 °F 26.6 °F 75% 29.66 in 10.0 mi SSE 23.0 mph 32.2 mph N/A   Clear
9:30 PM 33.8 °F 22.2 °F 26.6 °F 75% 29.66 in 10.0 mi SSE 20.7 mph 27.6 mph N/A   Clear
9:49 PM 33.8 °F 21.0 °F 26.6 °F 75% 29.66 in 10.0 mi SSE 25.3 mph 29.9 mph N/A   Clear
10:09 PM 33.8 °F 21.0 °F 26.6 °F 75% 29.65 in 10.0 mi SSE 25.3 mph 29.9 mph N/A   Clear
10:29 PM 33.8 °F 21.3 °F 26.6 °F 75% 29.65 in 10.0 mi SSE 24.2 mph 31.1 mph N/A   Clear
10:49 PM 33.8 °F 21.3 °F 26.6 °F 75% 29.64 in 10.0 mi SSE 24.2 mph 33.4 mph N/A   Clear
11:10 PM 33.8 °F 21.6 °F 26.6 °F 75% 29.63 in 10.0 mi SSE 23.0 mph 27.6 mph N/A   Clear
11:29 PM 33.8 °F 22.5 °F 26.6 °F 75% 29.62 in 10.0 mi SSE 19.6 mph 31.1 mph N/A   Clear
11:49 PM 33.8 °F 22.2 °F 26.6 °F 75% 29.62 in 10.0 mi SSE 20.7 mph 27.6 mph N/A   Clear